The Dalles, WA

12:53 PM PST on November 12, 2019 (GMT -0800)
Columbia Gorge Regional-The Dalles

Weather History for KDLS - May, 2019

Change the Weather History Date:

Tuesday, May 14, 2019

  Actual Average Record
Temperature  
Mean Temperature 58 °F -  
Max Temperature 64 °F 73 °F 98 °F (1973)
Min Temperature 52 °F 48 °F 33 °F (1964)
Degree Days  
Heating Degree Days 6    
Growing Degree Days 8 (Base 50)    
Moisture  
Dew Point 45 °F    
Average Humidity 58    
Maximum Humidity 80    
Minimum Humidity 50    
Precipitation  
Precipitation 0.00 in - - ()
Sea Level Pressure  
Sea Level Pressure 29.94 in    
Wind  
Wind Speed 13 mph (WNW)    
Max Wind Speed 22 mph    
Max Gust Speed 32 mph    
Visibility 10 miles    
Events Rain    
Averages and records for this station are not official NWS values.
T = Trace of Precipitation, MM = Missing Value Source: NWS Daily Summary

Daily Weather History Graph

Daily Weather History Graph

Search for Another Location

Airport or City:

Astronomy

May. 14, 2019 Rise Set
Actual Time 5:35 AM PDT 8:27 PM PDT
Civil Twilight 5:00 AM PDT 9:02 PM PDT
Nautical Twilight 4:16 AM PDT 9:46 PM PDT
Astronomical Twilight 3:24 AM PDT 10:39 PM PDT
Moon 3:37 PM PDT (5/14) 3:50 AM PDT (5/14)
Length of Visible Light 16h 02m
Length of Day
14h 52m
Waxing Gibbous, 80% of the Moon is Illuminated
May 14
Waxing Gibbous
May 18
Full
May 26
Last Quarter
Jun 3
New
Jun 9
First Quarter

Hourly Weather History & Observations

Time (PDT) Temp. Dew Point Humidity Pressure Visibility Wind Dir Wind Speed Gust Speed Precip Events Conditions
12:53 AM 63.0 °F 44.1 °F 50% 29.86 in 10.0 mi NW 20.7 mph 32.2 mph N/A   Clear
1:53 AM 63.0 °F 44.1 °F 50% 29.86 in 10.0 mi West 10.4 mph 20.7 mph N/A   Clear
2:53 AM 62.1 °F 44.1 °F 52% 29.85 in 10.0 mi WSW 8.1 mph - N/A   Clear
3:53 AM 60.1 °F 45.0 °F 57% 29.85 in 10.0 mi WNW 6.9 mph - N/A   Clear
4:53 AM 59.0 °F 43.0 °F 55% 29.86 in 10.0 mi WSW 6.9 mph - N/A   Clear
5:53 AM 60.1 °F 44.1 °F 55% 29.86 in 10.0 mi NW 9.2 mph - N/A   Clear
6:53 AM 60.1 °F 42.1 °F 51% 29.88 in 10.0 mi WNW 15.0 mph 23.0 mph N/A   Mostly Cloudy
7:53 AM 61.0 °F 42.1 °F 50% 29.89 in 10.0 mi WNW 10.4 mph 25.3 mph N/A   Scattered Clouds
8:53 AM 60.1 °F 42.1 °F 51% 29.92 in 10.0 mi WNW 12.7 mph 24.2 mph N/A   Mostly Cloudy
9:53 AM 59.0 °F 42.1 °F 53% 29.94 in 10.0 mi NW 16.1 mph - N/A   Mostly Cloudy
10:53 AM 60.1 °F 44.1 °F 55% 29.95 in 10.0 mi NW 21.9 mph 28.8 mph 0.00 in   Overcast
11:53 AM 61.0 °F 45.0 °F 56% 29.97 in 10.0 mi NW 18.4 mph 23.0 mph N/A   Overcast
12:53 PM 61.0 °F 46.0 °F 58% 29.97 in 10.0 mi NW 13.8 mph 18.4 mph N/A   Overcast
1:53 PM 61.0 °F 45.0 °F 56% 29.96 in 10.0 mi WNW 9.2 mph - N/A   Overcast
2:53 PM 61.0 °F 46.0 °F 58% 29.97 in 10.0 mi West 9.2 mph - N/A   Overcast
3:53 PM 61.0 °F 46.9 °F 60% 29.98 in 10.0 mi WNW 15.0 mph - 0.00 in Rain Light Rain
4:53 PM 63.0 °F 46.0 °F 54% 29.97 in 10.0 mi WNW 17.3 mph - 0.00 in   Overcast
5:53 PM 63.0 °F 46.0 °F 54% 29.98 in 10.0 mi WNW 11.5 mph - N/A   Clear
6:53 PM 62.1 °F 45.0 °F 53% 29.98 in 10.0 mi NW 16.1 mph - N/A   Mostly Cloudy
7:53 PM 61.0 °F 46.0 °F 58% 29.99 in 10.0 mi WNW 10.4 mph - N/A   Scattered Clouds
8:53 PM 57.0 °F 46.0 °F 67% 30.00 in 10.0 mi WNW 8.1 mph - N/A   Clear
9:53 PM 55.0 °F 46.0 °F 72% 30.01 in 10.0 mi WNW 5.8 mph - N/A   Mostly Cloudy
10:53 PM 54.0 °F 46.0 °F 75% 30.01 in 10.0 mi West 4.6 mph - N/A   Clear
11:53 PM 52.0 °F 46.0 °F 80% 29.99 in 10.0 mi SW 8.1 mph - N/A   Clear